Presure
173 157 157 172 167 157 154 159 163 162 154 163 154 164 140 161 171 143 166 147 162 163 156 146 152 170 152 143 167 180 184 164 194 204 180 194 174 166 224 171 203 187 211 186 144
158 168 168 161 157 160 162 142 149 153 153 147 164 149 163 158 152 118 151 149 160 159 169 160 156 172 173 179 179 179 154 173 166 151 172 175 204 167 170 194 177 219 188 213 202
173 177 160 154 156 160 152 156 162 166 151 155 165 163 154 162 164 162 134 154 164 161 168 142 170 153 177 170 140 178 166 175 181 183 195 201 191 200 200 147 215 187 214 171 192
174 156 153 144 160 155 156 167 170 171 171 161 164 170 158 122 154 161 156 146 161 165 161 164 162 175 161 169 131 157 168 184 168 193 190 199 212 219 215 223 187 183 185 223 209
143 155 146 153 150 162 164 170 167 169 152 155 156 145 163 167 150 162 158 153 162 161 160 166 168 158 170 169 178 168 173 168 184 158 190 201 217 216 236 247 241 282 182 189 281
162 159 166 171 170 178 179 180 158 167 170 160 186 155 185 162 156 166 150 164 167 154 167 172 161 171 161 174 171 183 180 185 179 183 199 210 209 232 474 355 459 439 349 307 285
163 155 158 160 170 173 176 188 183 174 171 172 172 169 175 166 178 164 162 173 157 168 174 170 166 168 176 182 178 159 198 189 180 196 196 212 238 469 345 436 369 423 420 346 311
158 160 164 169 162 166 168 169 175 175 177 146 173 132 169 179 170 178 175 163 168 178 161 161 168 175 180 177 161 170 176 177 192 193 204 480 478 450 422 396 415 131 260 399 314
179 177 159 167 169 168 176 169 145 133 146 173 179 178 178 181 176 178 162 161 179 164 166 168 170 185 172 180 168 176 173 189 184 207 471 443 424 423 410 400 393 398 175 394 313
177 178 178 176 175 178 179 172 183 177 170 178 169 178 181 162 172 162 170 174 165 164 161 171 177 181 180 161 174 170 179 183 196 485 464 431 409 405 379 366 207 357 378 362 288
185 186 188 196 182 189 198 193 190 177 183 174 174 179 168 202 153 164 168 167 166 160 161 179 196 179 158 169 163 175 175 188 292 475 464 431 397 380 383 349 141 351 63 362 354
206 206 201 193 191 175 128 172 181 177 174 182 180 168 171 166 158 169 164 175 161 180 172 194 174 157 159 176 164 200 185 214 402 447 399 420 384 382 367 363 277 334 362 363 336
199 180 197 210 207 204 193 184 181 183 186 176 168 178 168 154 170 163 168 169 186 201 192 151 155 174 169 158 192 174 206 303 481 464 375 411 382 384 346 342 342 337 304 347 348
135 270 231 148 199 206 199 187 191 182 177 185 183 160 159 187 168 163 170 166 180 191 156 167 182 170 165 161 174 184 200 272 451 454 364 423 373 378 359 336 341 326 335 187 336
311 303 314 333 153 218 182 196 155 177 165 188 187 164 185 139 163 192 238 178 189 195 178 157 169 164 187 177 182 233 308 336 446 445 375 342 397 379 350 344 337 323 325 323 339
216 275 246 208 208 168 190 150 177 185 163 169 168 171 168 192 205 230 186 175 151 185 157 159 190 156 167 177 233 231 233 338 414 437 386 342 411 382 357 345 336 319 307 322 317
244 232 242 212 163 196 177 133 171 173 182 171 165 178 191 167 182 182 167 170 166 168 170 179 173 183 180 189 189 237 253 334 291 419 390 361 326 445 367 351 334 322 306 312 311
220 220 150 207 206 212 201 158 210 196 158 136 190 199 188 158 180 139 176 162 156 184 177 173 162 179 187 233 240 247 304 331 324 437 425 364 334 305 441 360 332 325 315 306 314
140 126 149 205 193 151 220 206 156 182 161 172 157 158 179 212 145 133 145 169 188 167 188 206 193 216 219 224 226 262 299 327 350 435 421 393 343 427 434 388 348 337 326 308 311
152 170 213 153 146 162 180 182 200 183 181 131 170 169 142 225 156 183 180 171 168 165 185 186 175 189 180 240 254 308 301 326 363 417 424 408 372 399 333 438 372 346 229 321 314
212 175 146 187 168 169 166 194 160 187 151 197 172 162 147 203 185 171 205 202 177 184 199 195 191 184 242 226 255 304 301 326 306 436 422 415 287 411 425 440 453 366 284 132 318
101 202 166 145 156 198 162 141 168 149 172 186 171 152 206 193 149 171 182 206 163 198 198 196 179 228 224 234 313 302 301 329 289 380 407 409 424 400 397 261 100 103 97 332 334
135 148 140 192 167 192 125 188 136 192 125 206 137 188 186 207 188 178 182 182 177 181 191 215 209 238 230 235 314 302 306 329 265 371 404 427 406 404 409 410 455 475 452 83 347
138 169 173 157 140 154 184 178 194 148 138 209 178 131 192 155 170 162 174 199 176 221 176 196 215 250 235 274 318 302 312 334 295 406 388 403 404 391 215 401 268 442 465 355 325
138 130 156 175 155 150 170 142 201 163 210 141 139 155 170 152 213 154 209 204 190 166 218 190 207 244 241 281 319 305 317 329 277 410 428 392 403 395 398 401 415 422 429 385 344
132 140 195 135 186 216 127 142 193 181 199 137 132 165 143 179 135 134 201 211 202 193 219 225 247 208 287 296 318 309 319 326 391 432 414 398 394 397 397 394 403 404 412 413 87
141 132 136 135 185 136 130 184 145 115 199 134 158 199 153 182 170 193 161 199 208 216 200 237 209 230 231 295 322 318 320 325 401 423 414 401 394 396 397 386 397 394 405 402 348
Wind_Speed
23 25 26 28 26 27 29 30 28 30 31 30 31 31 28 30 32 30 28 37 31 33 39 47 42 42 54 60 49 45 37 59 55 60 62 66 85 90 71 90 76 93 79 82 79
27 31 31 28 29 32 32 24 27 30 31 31 34 32 33 34 32 33 34 38 38 38 39 38 42 44 49 52 52 47 57 51 65 79 73 79 70 93 99 82 96 82 93 86 88
31 29 26 25 28 32 31 34 36 36 34 34 36 35 36 35 35 38 38 36 39 40 43 50 46 48 53 52 55 57 56 61 67 69 67 73 74 75 81 64 88 99 91 90 90
33 26 27 25 32 32 33 36 37 38 39 36 37 38 37 28 35 40 39 44 42 45 43 44 46 54 49 56 58 60 64 74 70 79 70 74 88 91 84 88 99 106 109 102 101
25 27 25 31 31 36 36 38 37 36 33 35 35 33 38 40 40 42 41 44 45 45 44 48 51 52 57 60 66 65 69 70 78 78 79 85 91 85 100 112 115 111 107 107 105
32 32 36 37 38 39 41 42 35 38 40 37 45 38 47 39 42 45 43 47 49 42 51 54 52 58 55 68 67 77 75 83 86 82 96 92 91 114 56 72 58 78 101 103 102
34 30 33 34 38 38 39 43 41 39 40 41 42 44 47 43 48 45 47 51 48 53 55 55 58 60 68 75 75 65 84 91 83 97 84 103 116 60 41 45 45 65 65 104 102
32 36 39 42 34 35 35 35 38 40 42 38 44 41 45 50 47 49 49 49 53 57 50 55 63 69 72 73 61 80 83 82 99 88 102 50 46 49 47 52 50 20 43 69 102
45 44 35 42 40 37 43 37 32 30 37 43 47 46 48 49 47 49 46 48 58 51 56 61 66 72 69 71 77 86 80 100 87 108 44 47 44 43 43 47 45 51 22 63 104
44 45 46 44 43 44 43 38 45 41 40 44 43 47 48 43 46 47 52 53 52 55 58 64 65 68 69 67 84 77 88 88 102 43 40 43 39 37 40 44 46 47 54 61 94
45 46 46 48 45 46 49 47 44 41 43 42 43 48 44 54 40 50 52 54 57 56 59 64 68 65 63 83 71 91 79 91 81 43 35 36 35 37 40 44 41 51 14 60 69
47 45 45 46 45 40 25 38 41 39 40 47 45 42 43 43 47 52 53 59 56 64 63 64 62 64 69 82 76 101 98 110 61 44 41 29 35 38 42 43 34 44 49 54 62
42 38 38 42 42 43 42 42 39 41 43 41 41 46 44 47 52 53 55 58 64 65 61 55 61 72 83 68 94 86 102 99 41 36 43 27 35 35 37 40 43 45 42 55 61
18 32 48 23 39 39 41 40 41 38 39 44 44 42 47 51 52 54 57 57 59 60 60 65 65 81 78 74 88 102 112 98 45 40 42 31 32 33 38 44 42 45 50 32 61
26 28 26 29 28 38 36 41 30 38 37 42 44 41 49 32 53 59 60 55 57 62 58 65 75 70 80 90 95 104 97 91 46 39 40 38 32 37 40 45 43 47 53 58 63
32 23 27 29 32 29 34 23 32 36 38 39 41 45 50 55 61 58 54 53 49 57 67 70 72 62 80 90 102 108 99 90 56 40 39 37 34 36 44 47 47 54 56 60 64
19 27 19 31 23 33 30 28 37 39 37 38 42 48 51 44 52 53 47 54 48 52 64 75 71 78 93 93 99 102 107 89 76 42 39 37 35 32 46 52 54 59 64 64 69
27 26 14 31 34 33 33 36 37 38 40 26 44 52 50 49 52 38 51 56 52 55 65 74 78 87 94 105 110 115 94 89 65 44 38 36 35 36 34 56 59 64 71 70 75
15 13 29 32 30 33 32 33 39 39 44 40 37 40 51 62 41 42 48 57 62 61 61 76 79 94 100 104 98 115 93 88 81 44 40 35 37 31 33 55 65 67 74 77 78
25 24 29 25 27 33 29 36 38 39 42 27 41 48 38 56 45 52 44 61 59 65 62 79 79 90 92 114 119 98 94 90 77 50 43 36 32 30 40 37 69 69 45 81 81
32 27 28 31 31 33 35 39 36 42 43 51 44 45 48 57 48 54 65 64 60 61 83 71 84 89 117 107 118 97 94 92 80 45 44 39 21 35 35 37 42 75 62 27 84
17 36 32 32 33 37 39 37 36 40 44 46 44 53 58 55 61 59 54 73 71 76 66 72 87 105 99 105 100 98 96 93 79 67 46 45 29 31 39 28 23 24 24 77 85
24 30 30 40 37 40 32 42 31 50 23 44 36 50 56 66 47 52 58 63 73 76 64 93 95 114 110 103 99 97 96 92 76 69 43 44 35 33 34 35 41 28 38 19 82
30 35 36 32 30 35 41 45 46 45 23 57 45 39 48 60 57 62 61 68 66 94 62 85 102 119 117 118 102 98 97 91 80 53 58 40 39 30 22 35 28 24 17 85 83
29 29 31 38 40 33 43 41 47 48 57 41 34 44 54 62 78 61 81 77 72 64 99 83 95 110 117 113 100 99 96 91 80 48 46 43 39 38 30 29 25 18 21 63 89
28 35 45 33 50 50 31 46 51 52 57 41 51 55 49 50 50 55 61 87 78 82 101 105 119 95 114 110 99 97 94 90 60 37 44 46 39 37 27 24 23 21 24 35 17
35 34 38 27 48 37 30 45 46 37 62 35 57 62 64 52 59 71 72 66 81 96 79 115 96 101 105 109 97 94 90 87 54 41 42 43 41 38 27 23 25 24 26 38 86
Wind_Direction
264 296 289 272 270 274 282 279 281 283 288 288 281 287 277 278 292 270 277 270 282 286 270 266 272 292 261 264 280 276 283 266 297 297 251 272 249 255 289 254 251 253 247 241 240
295 279 273 275 279 277 273 289 287 286 288 289 285 280 288 282 282 269 289 266 290 281 295 281 272 300 302 304 300 294 263 272 269 260 268 248 288 252 255 257 253 265 250 245 237
280 273 279 286 282 282 286 283 285 284 287 286 287 285 284 291 295 295 283 283 293 288 295 273 301 279 305 298 280 304 269 284 291 287 285 287 269 271 271 260 268 249 249 243 240
284 284 288 287 284 286 287 284 285 285 284 283 286 288 288 280 290 298 292 287 292 296 294 298 298 304 297 302 280 276 292 297 282 297 286 286 286 285 272 276 253 250 249 252 245
280 283 290 288 289 285 286 286 283 283 280 282 282 284 289 292 284 291 290 288 292 291 295 299 301 298 304 305 308 297 297 290 296 284 291 292 290 289 289 281 275 266 253 253 256
287 284 287 288 289 290 290 288 281 284 284 282 290 290 291 289 288 291 288 291 293 290 301 302 302 307 301 309 302 303 301 299 294 296 293 295 300 294 273 259 252 244 237 237 239
284 281 284 284 289 292 292 294 289 286 288 289 289 291 292 289 291 288 291 294 295 300 302 306 308 307 312 309 305 296 307 300 301 297 309 304 297 270 264 258 247 248 241 229 229
279 282 284 285 282 284 286 288 289 290 290 284 291 296 288 291 289 291 292 296 300 301 306 308 311 311 309 307 298 303 302 302 299 314 308 287 283 269 255 250 234 270 246 235 220
282 282 280 280 281 283 286 283 288 304 293 290 290 292 292 294 294 296 300 302 302 309 310 309 310 308 308 307 305 301 307 302 318 311 292 287 288 280 258 252 241 234 258 227 216
280 279 278 279 281 284 283 282 288 288 287 288 289 291 293 294 296 301 302 302 308 308 309 309 308 312 310 310 304 308 306 314 314 303 292 287 284 266 252 248 222 234 221 225 215
277 275 277 275 280 279 280 282 283 287 287 287 289 290 291 298 311 305 308 309 308 310 313 313 314 311 314 303 312 308 319 319 318 305 297 285 276 255 252 241 248 228 184 216 220
280 276 274 274 273 280 300 285 283 284 288 289 291 293 300 303 311 307 310 306 311 310 315 315 309 317 314 305 320 309 316 311 315 310 312 288 272 256 240 234 226 230 225 214 218
281 275 276 277 275 274 275 279 284 285 287 290 295 299 303 313 303 306 307 309 311 308 315 322 323 303 304 322 314 323 325 325 318 310 311 287 270 261 246 237 229 224 220 213 209
297 283 270 301 272 276 274 278 280 287 291 294 300 308 307 305 304 308 307 316 312 313 314 306 307 305 315 324 318 315 313 326 320 311 308 278 268 252 247 232 225 219 214 216 206
289 292 293 289 305 271 278 275 300 291 299 296 300 311 305 322 306 309 306 312 314 312 308 323 308 320 308 313 315 333 334 334 320 310 308 301 257 249 244 229 221 214 214 207 204
283 286 275 268 265 285 277 298 296 296 302 300 303 303 308 309 308 308 309 310 313 314 322 321 319 330 326 318 335 331 327 335 326 310 305 300 282 241 235 227 217 208 212 208 203
318 279 295 269 294 278 288 317 296 298 300 299 301 308 307 315 310 309 325 307 321 319 306 313 328 320 311 321 316 337 336 335 333 313 305 298 287 271 232 225 216 207 208 209 200
287 281 321 279 277 276 283 299 286 296 311 331 307 307 307 315 308 330 310 326 321 315 311 316 323 313 309 336 336 338 336 335 329 311 306 294 284 276 258 224 219 211 208 206 202
309 308 311 283 286 309 283 290 307 301 307 309 321 325 314 311 324 326 336 312 325 335 324 330 322 335 335 331 328 337 336 335 335 309 306 297 283 285 278 230 224 216 210 206 203
299 304 283 305 323 308 299 299 302 302 306 336 321 324 344 311 321 320 308 314 330 330 314 326 320 321 323 338 337 335 335 335 332 315 307 302 286 283 263 265 225 221 222 209 202
293 291 309 299 290 292 306 303 315 305 315 312 318 315 335 311 312 328 320 329 312 316 328 325 324 316 336 332 337 335 335 335 335 307 306 303 304 291 286 276 266 222 221 248 205
332 295 286 320 296 300 297 316 307 318 310 308 319 330 309 315 334 311 318 327 320 331 325 325 317 340 334 336 336 336 334 335 335 327 312 303 312 287 276 277 271 256 254 218 208
313 305 297 297 299 300 315 303 328 303 311 309 320 308 318 314 327 316 327 319 315 314 330 334 337 337 335 331 336 336 333 336 334 328 312 295 310 297 288 292 298 303 239 266 211
316 299 299 293 323 315 299 302 303 325 317 307 320 331 317 328 332 333 308 333 319 330 329 330 334 336 337 336 336 336 335 336 334 318 316 312 298 296 280 294 288 289 247 214 212
308 314 291 291 311 314 308 325 304 310 303 314 328 317 316 329 315 330 326 335 328 336 336 331 328 334 336 336 337 335 334 336 334 313 289 308 296 297 291 295 283 266 221 211 213
298 305 286 320 293 296 297 325 300 303 304 338 334 327 342 314 335 336 333 330 328 322 336 338 336 329 337 336 337 334 334 335 325 297 297 300 303 294 293 289 266 242 223 204 275
298 299 297 311 295 312 314 300 314 324 303 346 323 315 327 312 332 324 329 330 336 333 325 332 332 336 336 335 337 335 334 335 320 302 293 294 295 291 287 278 254 226 214 203 206